Location: Caltech
(34.1382°N, 118.1253°W)
Time: 21:04:01
(UTC-08:00)

AO-7 - Visible Passes

Search period start: 17 December 2017 00:00
Search period end: 27 December 2017 00:00
Orbit: 1440 x 1459 km, 101.7° (Epoch: 16 December)

Date Brightness Start Highest point End Pass type
(mag) Time Alt. Az. Time Alt. Az. Time Alt. Az.
17 Dec ? 03:26:45 10° NNE 03:45:25 - SSW 03:31:58 43° NNE visible
17 Dec ? 05:21:11 10° NNW 05:26:52 21° NW 05:26:52 21° NW visible
18 Dec ? 02:27:47 10° NE 02:44:31 - SSE 02:30:51 21° NE visible
18 Dec ? 04:19:55 10° N 04:25:45 42° NNW 04:25:45 42° NNW visible
19 Dec ? 03:19:49 10° NNE 03:38:33 - S 03:24:37 39° NNE visible
19 Dec ? 05:13:57 10° N 05:19:31 24° NW 05:19:31 24° NW visible
20 Dec ? 02:21:03 10° NE 02:37:39 - SSE 02:23:30 18° NE visible
20 Dec ? 04:12:51 10° N 04:18:25 42° NNW 04:18:25 42° NNW visible
21 Dec ? 03:12:53 10° NNE 03:31:41 - S 03:17:18 35° NE visible
21 Dec ? 05:06:46 10° N 05:12:13 26° NW 05:12:13 26° NW visible
22 Dec ? 02:14:21 10° NE 02:30:48 - SSE 02:16:12 16° NE visible
22 Dec ? 04:05:49 10° N 04:11:06 42° N 04:11:06 42° N visible
22 Dec ? 06:03:01 10° NW 06:05:06 11° NW 06:06:01 11° WNW visible
23 Dec ? 03:05:58 10° NNE 03:24:50 - S 03:10:01 31° NE visible
23 Dec ? 04:59:35 10° N 05:04:55 28° NW 05:04:55 28° NW visible
24 Dec ? 02:07:43 10° NE 02:08:55 13° NE 02:08:55 13° NE visible
24 Dec ? 03:58:48 10° N 04:03:50 41° N 04:03:50 41° N visible
24 Dec ? 05:55:07 10° NNW 05:58:18 13° NW 05:58:45 13° NW visible
25 Dec ? 02:59:04 10° NNE 03:17:59 - S 03:02:45 28° NE visible
25 Dec ? 04:52:27 10° N 04:57:40 29° NW 04:57:40 29° NW visible
26 Dec ? 02:01:09 10° NE 02:01:41 11° NE 02:01:41 11° NE visible
26 Dec ? 03:51:47 10° NNE 03:56:36 39° N 03:56:36 39° N visible
26 Dec ? 05:47:33 10° NNW 05:51:29 14° NW 05:51:30 14° NW visible
